Torna al catalogo

ONEWEB-0288

AttivoComunicazioniPO
NORAD 49078·PAYLOAD·🇬🇧 United Kingdom

Lanciato Aug 21, 2021 da Baikonur Cosmodrome

Loading…

Prossimi Passaggi (prossime 24 ore)

TLE

AggiornatoSource: CelesTrak SupGP

Epoca: Sep 14, 2026, 18:30 UTC

1 49078C 21075D   26257.77101111 -.00000242  00000+0 -67379-3 0  2575
2 49078  87.8982 332.8728 0001810 107.7791 352.0087 13.12440619    14

Traccia ONEWEB-0288 in tempo reale con AllMySat

Download on the App Store